Tracking 30101 objects as of 14-Dec-2024
HD Live streaming from Space Station
objects crossing your sky now

STARLINK-5610

Track STARLINK-5610 now!
10-day predictions
STARLINK-5610 is classified as:


NORAD ID: 57244
Int'l Code: 2023-094AC
Perigee: 565.4 km
Apogee: 567.0 km
Inclination: 43.0 °
Period: 95.8 minutes
Semi major axis: 6937 km
RCS: Unknown
Launch date: July 7, 2023
Source: United States (US)
Launch site: AIR FORCE WESTERN TEST RANGE (AFWTR)
Your satellite tracking list
Your tracking list is empty




NASA's NSSDC Master Catalog

Two Line Element Set (TLE):
1 57244U 23094AC  24349.22156780  .00000792  00000-0  73682-4 0  9991
2 57244  43.0050 305.4037 0001143 273.7063  86.3648 15.02533523 79713
Source of the keplerian elements: AFSPC